User: anonymous   Login
Location: Carrières
(48.9495°N, 2.0407°E)
Time: 15:41:17
(UTC+00:00)
Language:

Cosmos 1241 Rocket - Orbit

View from above orbital plane
View from above orbital plane
View from above satellite
View from above satellite

Ground track
Ground track

The orbit data is extracted from the following two-line orbital elements,

1 12150U 81006B   24105.92054433  .00000029  00000-0  11041-3 0  9997
2 12150  65.8236   5.9039 0043663  54.7232 305.7904 13.77306672172282
Epoch (UTC): 14 April 2024 22:05:35
Eccentricity: 0.0043663
inclination: 65.8236°
perigee height: 941 km
apogee height: 1005 km
right ascension of ascending node: 5.9039°
argument of perigee: 54.7232°
revolutions per day: 13.77306672
mean anomaly at epoch: 305.7904°
orbit number at epoch: 17228

The dashed part of the orbit path shows where the satellite is in the earth's shadow,  

DLR